Change the Weather History Date:

Monday, February 11, 2013

  Actual Average Record
Temperature  
Mean Temperature -19 °F -14 °F  
Max Temperature -13 °F -8 °F 27 °F (1923)
Min Temperature -25 °F -20 °F -54 °F (1925)
Degree Days  
Heating Degree Days 84 79  
Month to date heating degree days 940 869  
Since 1 July heating degree days 10587 11505  
Cooling Degree Days 0    
Month to date cooling degree days 0  
Year to date cooling degree days 0  
Moisture  
Dew Point -25 °F    
Average Humidity 0    
Maximum Humidity 0    
Minimum Humidity 0    
Precipitation  
Precipitation T in 0.00 in 0.12 in (1923)
Month to date precipitation T 0.05  
Year to date precipitation 0.06 0.18  
Snow  
Snow T in 0.10 in 3.00 in (1923)
Month to date snowfall 0.4 1.0  
Since 1 July snowfall 41.7 27.4  
Snow Depth 6.00 in    
Sea Level Pressure  
Sea Level Pressure 29.78 in    
Wind  
Wind Speed 8 mph (ENE)    
Max Wind Speed 18 mph    
Max Gust Speed 22 mph    
Visibility 8 miles    
Events Snow    
T = Trace of Precipitation, MM = Missing Value Source: NWS Daily Summary

Daily Weather History Graph

Daily Weather History Graph

Search for Another Location

Airport or City:

Trip Planner

Search our weather history database for the weather conditions in past years. The results will help you decide how hot, cold, wet, or windy it might be!

Date:

Astronomy

Feb. 11, 2013 Rise Set
Actual Time 10:31 AM AKST 4:52 PM AKST
Civil Twilight 9:12 AM AKST 6:11 PM AKST
Nautical Twilight 7:54 AM AKST 7:30 PM AKST
Astronomical Twilight 6:39 AM AKST 8:45 PM AKST
Moon 9:18 AM AKST (2/11) 9:04 PM AKST (2/11)
Length of Visible Light 8h 58m
Length of Day
6h 20m
Waxing Crescent, 3% of the Moon is Illuminated
Feb 11
Waxing Crescent
Feb 17
First Quarter
Feb 25
Full
Mar 4
Last Quarter
Mar 11
New

Hourly Weather History & Observations

Time (AKST) Temp. Windchill Dew Point Humidity Pressure Visibility Wind Dir Wind Speed Gust Speed Precip Events Conditions
12:53 AM -13.0 °F -37.5 °F -18.9 °F 75% 29.72 in 10.0 mi ENE 17.3 mph - N/A   Clear
1:53 AM -14.1 °F -38.9 °F -18.9 °F 79% 29.72 in 10.0 mi ENE 17.3 mph - N/A   Clear
2:53 AM -14.1 °F -38.2 °F -18.9 °F 79% 29.73 in 10.0 mi ENE 16.1 mph - N/A   Clear
3:53 AM -17.0 °F -37.3 °F -22.0 °F 78% 29.73 in 10.0 mi ENE 10.4 mph - N/A   Clear
4:53 AM -20.0 °F -41.1 °F -26.0 °F 74% 29.74 in 10.0 mi ENE 10.4 mph - N/A   Clear
5:53 AM -20.9 °F -43.3 °F -26.0 °F 77% 29.74 in 10.0 mi ENE 11.5 mph - N/A   Clear
6:53 AM -23.1 °F -42.3 °F -27.9 °F 78% 29.75 in 10.0 mi East 8.1 mph - N/A   Clear
7:53 AM -23.1 °F -38.9 °F -27.9 °F 78% 29.76 in 10.0 mi East 5.8 mph - N/A   Clear
8:53 AM -22.0 °F -39.4 °F -29.0 °F 70% 29.76 in 10.0 mi East 6.9 mph - N/A   Scattered Clouds
9:53 AM -23.1 °F -42.3 °F -29.0 °F 74% 29.76 in 10.0 mi ENE 8.1 mph - N/A   Mostly Cloudy
10:53 AM -23.1 °F -42.3 °F -29.0 °F 74% 29.77 in 10.0 mi ENE 8.1 mph - N/A   Mostly Cloudy
11:53 AM -22.0 °F -41.0 °F -27.9 °F 74% 29.78 in 10.0 mi East 8.1 mph - N/A   Mostly Cloudy
12:53 PM -20.9 °F -38.1 °F -27.0 °F 73% 29.79 in 10.0 mi East 6.9 mph - N/A   Mostly Cloudy
1:53 PM -20.0 °F -33.3 °F -26.0 °F 74% 29.80 in 9.0 mi East 4.6 mph - 0.00 in Snow Light Snow
2:53 PM -18.9 °F -29.5 °F -25.1 °F 74% 29.80 in 10.0 mi East 3.5 mph - 0.00 in   Overcast
3:53 PM -18.0 °F -33.0 °F -24.0 °F 74% 29.80 in 10.0 mi ENE 5.8 mph - N/A   Overcast
4:53 PM -17.0 °F -33.4 °F -23.1 °F 74% 29.80 in 5.0 mi ENE 6.9 mph - 0.00 in Snow Light Snow
5:13 PM -16.6 °F -32.9 °F -23.8 °F 70% 29.80 in 2.5 mi East 6.9 mph - 0.00 in Snow Light Snow
5:53 PM -17.0 °F -33.4 °F -23.1 °F 74% 29.81 in 5.0 mi ENE 6.9 mph - 0.00 in Snow Light Snow
6:53 PM -17.0 °F -29.7 °F -22.0 °F 78% 29.81 in 6.0 mi East 4.6 mph - 0.00 in Snow Light Snow
7:53 PM -18.0 °F -30.9 °F -23.1 °F 78% 29.82 in 7.0 mi East 4.6 mph - 0.00 in Snow Light Snow
8:53 PM -18.9 °F -35.8 °F -24.0 °F 78% 29.82 in 7.0 mi East 6.9 mph - 0.00 in Snow Light Snow
9:53 PM -18.9 °F -32.0 °F -25.1 °F 74% 29.82 in 7.0 mi East 4.6 mph - 0.00 in Snow Light Snow
10:53 PM -17.0 °F -31.7 °F -23.1 °F 74% 29.82 in 3.0 mi ENE 5.8 mph - 0.00 in Snow Light Snow
11:53 PM -17.0 °F -33.4 °F -23.1 °F 74% 29.83 in 5.0 mi ENE 6.9 mph - 0.00 in Snow Light Snow